Home   Weather   Giridih   Past weeks

Flag for India Past Weather in Giridih, Jharkhand, India — Yesterday and Last 2 Weeks

79 °F


Feels Like: 81 °F
Forecast: 66 / 88 °F
Wind: No wind

Location: Lucknow / Amausi

Current Time: Oct 22, 2016 at 11:22:55 PM

Latest Report: Oct 22, 2016 at 11:00 PM

Visibility: 2 mi

Pressure: 29.77 "Hg

Humidity: 65%

Dew Point: 66 °F

Location of GiridihLocation

Past Weather in Giridih — Graph


Giridih Temperature Yesterday

Maximum temperature yesterday: 93 °F (at 1:30 PM)
Minimum temperature yesterday: 66 °F (at 5:30 AM)
Average temperature yesterday: 80 °F

High & Low Weather Summary for the Past Weeks

High95 °F (Oct 10, 2:30 PM)100% (Oct 9, 5:00 AM)29.89 "Hg (Oct 9, 5:00 AM)
Low66 °F (Oct 14, 5:30 AM)30% (Oct 14, 1:00 PM)29.62 "Hg (Oct 9, 3:00 PM)
Average82 °F65%29.74 "Hg
* Reported Oct 7 8:30 PM — Oct 22 9:00 PM, Giridih, Weather by CustomWeather, © 2016

Note: Actual official high and low records may vary slightly from our data, if they occured in-between our weather recording intervals... More about our weather records


Giridih Weather History for the Previous 24 Hours

Scroll right to see more
Time TempWeatherWind HumidityBarometerVisibility
9:00 PM
Sat, Oct 22
79 °FHaze.No wind65%29.77 "Hg2 mi
8:30 PM81 °FHaze.No wind62%29.77 "Hg2 mi
8:00 PM82 °FHaze.2 mph66%29.77 "Hg2 mi
7:30 PM82 °FHaze.No wind66%29.77 "Hg2 mi
7:00 PM84 °FHaze.No wind58%29.74 "Hg2 mi
6:30 PM86 °FHaze.No wind55%29.74 "Hg2 mi
6:00 PM88 °FHaze.No wind49%29.74 "Hg2 mi
5:30 PM90 °FHaze.No wind46%29.71 "Hg3 mi
5:00 PM91 °FHaze.2 mph36%29.71 "Hg3 mi
4:30 PM91 °FHaze.3 mph34%29.71 "Hg3 mi
4:00 PM91 °FHaze.5 mph34%29.71 "Hg3 mi
3:30 PM93 °FHaze.6 mph32%29.71 "Hg3 mi
3:00 PM95 °FHaze.6 mph30%29.74 "Hg3 mi
2:30 PM95 °FHaze.6 mph30%29.74 "Hg3 mi
2:00 PM95 °FHaze.5 mph30%29.74 "Hg3 mi
1:30 PM95 °FHaze.5 mph30%29.74 "Hg3 mi
1:00 PM95 °FHaze.5 mph32%29.77 "Hg3 mi
12:30 PM93 °FHaze.5 mph32%29.77 "Hg3 mi
12:00 PM75 °FHaze.6 mph61%29.80 "Hg3 mi
11:30 AM91 °FHaze.6 mph36%29.80 "Hg3 mi
11:00 AM90 °FHaze.6 mph41%29.83 "Hg2 mi
10:30 AM88 °FHaze.5 mph43%29.83 "Hg2 mi
10:00 AM86 °FHaze.5 mph46%29.83 "Hg2 mi
9:30 AM84 °FHaze.5 mph48%29.83 "Hg2 mi
9:00 AM81 °FHaze.2 mph54%29.83 "Hg2 mi
8:30 AM77 °FHaze.No wind65%29.80 "Hg1 mi
8:00 AM73 °FHaze.No wind69%29.80 "Hg1 mi
7:30 AM72 °FHaze.No wind69%29.80 "Hg1 mi
7:00 AM70 °FHaze.No wind73%29.77 "Hg1 mi
6:30 AM70 °FHaze.No wind69%29.77 "Hg1 mi
6:00 AM70 °FHaze.No wind69%29.77 "Hg1 mi
5:30 AM70 °FHaze.No wind73%29.74 "Hg1 mi
5:00 AM70 °FHaze.No wind78%29.74 "Hg1 mi
3:00 AM72 °FHaze.No wind78%29.74 "Hg2 mi
2:00 AM72 °FHaze.No wind78%29.74 "Hg2 mi
1:00 AM73 °FHaze.No wind69%29.74 "Hg2 mi
12:00 AM75 °FHaze.No wind61%29.77 "Hg2 mi
11:00 PM
Fri, Oct 21
75 °FHaze.No wind65%29.77 "Hg2 mi
Weather by CustomWeather, © 2016

See weather overviewHow to use our weather pages